Dewpoint
69 68 68 68 68 69 70 71 72 71 72 73 73 72 72 72 72 72 71 71 71 71
70 69 69 70 68 69 70 70 72 72 71 72 73 73 73 72 72 72 72 72 72 70
71 71 70 70 70 69 70 70 71 71 72 72 73 73 73 73 73 73 73 73 72 72
72 72 72 72 71 71 70 71 71 72 71 71 72 73 74 73 73 72 72 73 72 72
71 72 73 73 73 72 72 72 72 72 72 72 73 73 73 73 73 73 72 72 72 71
71 72 72 73 73 75 74 73 72 72 72 73 73 73 73 74 73 73 73 72 73 72
72 72 72 72 72 73 73 74 74 73 73 73 73 74 74 74 74 73 73 73 73 73
74 74 75 75 75 74 74 74 73 74 74 74 74 74 74 74 74 73 73 74 74 75
75 75 75 75 75 75 75 75 75 74 74 73 74 71 70 73 74 74 74 74 74 75
72 73 74 75 76 75 75 76 75 75 74 74 74 69 69 71 75 75 75 75 75 73
72 72 73 73 73 75 76 75 74 75 75 75 74 69 68 69 75 76 76 75 74 74
70 70 70 69 72 74 74 75 74 75 75 75 75 67 66 68 74 75 75 75 74 74
69 68 68 68 71 73 74 74 75 74 75 72 75 66 64 68 75 75 74 75 75 68
67 66 67 69 71 71 71 73 75 74 75 75 74 69 61 61 73 73 74 74 73 74
Lifted_Index
-3 -3 -3 -3 -3 -3 -3 -3 -3 -3 -3 -4 -4 -4 -4 -4 -3 -3 -3 -3 -3 -3
-3 -3 -3 -3 -3 -3 -3 -3 -3 -3 -3 -4 -4 -4 -4 -4 -4 -3 -3 -3 -4 -4
-4 -4 -4 -3 -3 -4 -4 -4 -4 -4 -4 -4 -4 -5 -5 -5 -4 -4 -4 -4 -4 -4
-4 -4 -4 -4 -4 -4 -5 -5 -5 -4 -4 -4 -4 -5 -5 -5 -5 -5 -5 -5 -5 -5
-5 -5 -5 -5 -5 -5 -5 -5 -5 -5 -5 -5 -5 -6 -6 -6 -6 -6 -5 -5 -5 -5
-6 -6 -5 -5 -5 -6 -6 -6 -6 -6 -6 -6 -6 -6 -6 -6 -6 -6 -5 -5 -5 -5
-7 -7 -6 -6 -6 -6 -6 -6 -6 -6 -7 -7 -7 -7 -7 -7 -6 -6 -6 -6 -6 -6
-8 -8 -7 -7 -7 -7 -7 -7 -7 -7 -7 -7 -7 -7 -7 -7 -7 -7 -6 -6 -6 -6
-8 -8 -8 -8 -8 -8 -8 -8 -8 -8 -8 -8 -8 -7 -7 -7 -7 -7 -7 -7 -7 -7
-8 -8 -8 -8 -8 -8 -8 -9 -8 -8 -8 -8 -8 -8 -8 -8 -8 -8 -8 -7 -7 -7
-6 -7 -7 -7 -7 -8 -8 -9 -9 -9 -9 -9 -8 -8 -8 -8 -8 -8 -7 -7 -7 -6
-5 -5 -5 -5 -6 -7 -8 -8 -9 -9 -9 -9 -9 -8 -8 -8 -8 -8 -7 -7 -7 -6
-3 -3 -3 -3 -4 -6 -7 -8 -9 -10 -10 -9 -9 -8 -8 -8 -8 -8 -7 -7 -7 -6
-2 -2 -3 -3 -4 -5 -6 -7 -9 -10 -10 -10 -9 -8 -8 -8 -8 -8 -8 -7 -7 -6